Location: Miss�
(46.9484°N, 0.1922°W)
Time: 11:21:35
(UTC+00:00)

GP-B - Pass Details

Date: 02 March 2021
Orbit: 631 x 634 km, 89.8° (Epoch: 11 April)

Event Time Altitude Azimuth Distance (km) Brightness Sun altitude
Rises 19:00:11 0° 164° (SSE) 2,918 6.3 -13.1°
Reaches altitude 10° 19:02:26 10° 160° (SSE) 2,015 5.4 -13.5°
Maximum altitude 19:06:44 53° 84° (E) 783 3.2 -14.2°
Drops below altitude 10° 19:11:05 10° 7° (N) 2,032 5.7 -15.0°
Sets 19:13:21 0° 3° (N) 2,945 6.6 -15.3°
